Overview Statistics Trail Chart Weather Telemetry Raw packets
 

This is the latest recevied weather packets stored in our database for station/object KR0L-13. If no packets are shown the sender has not sent any weather packets the latest 10 day(s).

<< 50 51 52 53 54 55 56 >>
Time Temp. Humidity Pressure Rain* Wind** Luminosity Snow
1787889921 21.11° C 70% 1019.6 hPa 0 mm - - -
1787889321 21.11° C 70% 1019.4 hPa 0 mm - - -
1787888721 21.11° C 70% 1019 hPa 0 mm - - -
1787888120 21.11° C 69% 1019 hPa 0 mm - - -
1787887521 21.11° C 68% 1019 hPa 0 mm - - -
1787886977 21.11° C 66% 1019 hPa 0 mm - - -
1787886321 21.67° C 65% 1019 hPa 0 mm - - -
1787885721 22.22° C 63% 1019 hPa 0 mm - - -
1787885120 22.78° C 62% 1018.8 hPa 0 mm - - -
1787884521 22.78° C 61% 1018.5 hPa 0 mm - - -
1787883920 22.22° C 62% 1018.4 hPa 0 mm - - -
1787883320 22.22° C 62% 1018 hPa 0 mm - - -
1787882720 22.78° C 60% 1017.9 hPa 0 mm - - -
1787882120 22.78° C 59% 1017.7 hPa 0 mm - - -
1787881520 22.78° C 58% 1017.5 hPa 0 mm - - -
1787880920 23.89° C 55% 1017.5 hPa 0 mm - - -
1787880320 24.44° C 52% 1017.5 hPa 0 mm - - -
1787879720 25.56° C 50% 1017.3 hPa 0 mm - - -
1787879120 26.11° C 48% 1017.3 hPa 0 mm - - -
1787878520 27.22° C 46% 1017.2 hPa 0 mm - - -
1787877920 27.78° C 45% 1017.4 hPa 0 mm - - -
1787877320 28.89° C 43% 1017.4 hPa 0 mm - - -
1787876720 29.44° C 41% 1017.4 hPa 0 mm - - -
1787876120 30° C 39% 1017.5 hPa 0 mm - - -
1787875521 30.56° C 36% 1017.5 hPa 0 mm - - -

* Rain latest hour (hover to see other rain measurements)
** Current wind speed in m/s (hover to see current wind gust speed)